Location: Cicognara
(44.9500°N, 10.4667°E)
Time: 09:30:06
(UTC+00:00)

Cosmos 1943 - Pass Details

Date: 20 June 2021
Orbit: 832 x 851 km, 71.0° (Epoch: 04 August)

Event Time Altitude Azimuth Distance (km) Brightness Sun altitude
Exits shadow 23:36:56 35° 141° (SE) 1,320 3.8 -21.5°
Maximum altitude 23:38:20 41° 107° (ESE) 1,192 3.8 -21.5°
Drops below altitude 10° 23:43:35 10° 39° (NE) 2,463 6.4 -21.4°
Sets 23:46:09 0° 32° (NNE) 3,405 7.5 -21.3°
